Wind_Speed
7 3 7 12 4 7 19 11 11 11 12 6 23 19 24 18 10 12 7 6 5 5 8 8 7 7 7 6 10 8 8 9 12 14 15 12 16 16 13 10 6 8 12 10
5 5 6 8 10 4 8 5 4 5 6 17 23 20 14 10 10 5 9 9 8 5 3 8 6 4 7 11 8 6 9 10 11 15 14 13 16 17 10 14 12 14 14 10
6 5 5 4 6 9 7 7 7 6 2 16 21 12 6 7 7 4 5 10 11 6 4 6 10 13 13 10 6 8 13 14 15 15 13 15 16 16 17 20 18 18 15 15
6 5 2 6 9 8 7 8 9 10 8 5 1 5 7 5 5 5 12 9 6 3 4 8 6 7 6 4 13 13 12 13 17 16 15 16 16 16 17 16 15 13 11 13
8 16 14 12 6 4 5 11 10 14 12 5 5 7 3 5 3 3 8 7 5 5 4 4 4 2 1 4 8 12 15 17 16 12 16 17 16 16 16 16 15 15 13 15
6 6 7 1 13 10 9 11 10 6 5 5 8 7 7 4 3 6 9 8 7 5 5 5 4 5 16 18 15 17 20 18 18 17 17 18 17 17 17 17 16 17 16 14
2 5 5 6 9 10 10 8 4 6 5 3 4 12 3 5 6 12 9 7 4 8 6 5 10 16 19 18 18 17 17 18 17 18 17 15 16 16 16 17 18 16 16 15
6 3 2 3 3 4 6 6 3 4 3 3 9 6 1 4 8 11 10 6 11 6 4 6 19 19 16 22 23 21 18 15 17 17 13 15 14 18 15 15 14 15 15 13
5 7 5 7 5 6 6 5 5 1 6 6 4 3 3 5 8 9 8 10 7 4 13 11 16 20 20 20 21 20 17 17 16 16 14 18 21 16 17 17 16 13 13 9
6 3 6 10 4 8 7 5 7 5 3 4 4 2 2 4 8 9 7 7 4 6 7 12 20 22 22 20 17 20 19 16 15 19 18 19 20 18 16 18 17 13 13 12
5 5 7 6 5 6 6 6 6 2 5 3 2 1 4 7 13 10 7 7 7 8 9 11 18 20 18 20 18 17 17 15 15 20 17 19 17 18 18 18 18 13 12 13
5 2 3 6 8 7 8 7 5 4 2 4 4 1 6 12 9 10 8 7 8 10 8 14 19 19 17 16 15 17 15 19 13 16 23 19 19 21 17 15 16 14 13 11
5 3 3 3 8 6 6 7 7 5 6 5 4 3 9 12 11 8 7 9 11 10 8 13 16 14 12 14 16 17 17 19 18 17 19 19 21 21 18 17 13 14 13 14
4 3 1 3 3 2 6 8 7 6 4 9 6 8 4 9 7 6 9 13 12 9 7 10 11 11 13 13 13 15 15 18 16 18 20 19 19 18 18 17 15 15 14 15
4 4 6 5 6 6 9 13 14 10 9 6 5 8 7 8 8 7 7 12 13 8 7 7 7 12 12 12 11 14 14 17 16 18 20 21 15 14 16 16 18 18 16 11
2 3 5 2 7 19 17 15 13 12 12 11 8 5 8 8 8 7 10 11 11 6 8 7 10 11 9 9 11 13 13 15 17 15 17 20 15 16 12 15 15 16 18 17
2 2 3 4 3 5 8 11 12 13 11 8 7 4 6 10 10 9 9 11 8 7 7 6 9 9 7 11 12 14 13 11 17 17 17 17 16 13 14 14 14 14 16 16
3 3 3 4 1 5 4 11 14 17 13 12 9 9 13 13 9 9 9 8 8 6 6 11 9 7 7 10 10 11 14 10 15 16 18 17 17 16 14 14 15 13 13 10
6 3 1 3 4 6 13 9 3 3 6 7 8 9 9 14 11 8 8 8 8 9 11 9 8 6 6 8 11 12 13 11 12 15 15 14 13 13 13 15 16 15 13 14
13 12 2 2 5 4 4 12 15 6 4 7 9 8 7 7 4 1 6 14 10 10 8 8 5 4 7 9 10 11 10 10 11 11 12 13 11 14 16 17 16 14 13 11
4 6 7 5 4 4 7 13 6 7 4 7 9 7 9 5 4 5 10 8 11 7 6 4 2 4 5 7 9 10 7 8 9 8 9 11 11 11 14 12 11 16 14 11
2 2 3 5 5 3 7 7 6 1 6 8 8 8 8 8 7 7 8 8 10 6 5 4 4 4 3 7 7 7 8 7 6 8 8 4 8 9 9 10 10 14 13 10
4 3 3 4 3 5 4 8 6 8 6 6 6 6 9 7 7 6 5 10 8 5 3 3 3 3 3 6 6 5 8 7 7 10 10 8 9 12 4 13 10 9 12 13
6 9 4 5 5 7 7 6 8 7 6 8 7 9 7 7 7 6 8 5 5 1 2 1 2 4 4 5 5 5 5 8 9 10 10 6 8 8 7 7 11 11 11 11
3 4 3 4 6 7 6 6 6 6 9 9 11 9 9 9 5 7 6 5 6 1 4 2 3 3 4 5 6 4 4 7 7 7 7 8 9 10 6 0 4 7 10 10
4 5 3 1 4 5 2 4 6 8 7 7 7 9 11 11 6 9 8 6 3 5 4 4 1 3 4 3 3 4 6 8 8 10 9 11 14 16 14 11 5 4 5 8
Wind_Direction
234 142 228 248 221 276 135 150 179 232 250 49 96 85 67 92 130 136 131 120 128 157 178 174 159 122 136 96 97 81 65 51 38 39 22 19 1 21 24 37 13 1 353 341
283 230 336 333 340 315 109 85 202 169 219 106 87 85 93 107 118 141 146 149 158 145 181 134 141 143 48 101 83 56 49 40 42 19 14 1 352 342 343 347 344 346 350 327
156 210 246 318 30 27 60 36 351 327 297 98 117 82 71 71 96 151 131 89 98 121 81 78 78 71 57 87 36 52 58 46 28 11 4 355 354 347 348 347 348 338 340 333
130 199 243 324 52 44 360 6 336 326 334 250 248 107 52 73 53 61 105 95 106 129 102 88 49 49 73 64 74 69 47 30 23 13 14 6 356 356 350 355 348 352 2 357
41 42 30 41 7 343 13 359 344 318 305 110 19 82 79 354 68 126 116 115 138 135 135 74 128 121 59 47 76 68 44 35 21 24 10 18 15 7 2 360 358 357 356 347
79 74 58 194 346 43 14 12 326 3 3 62 347 110 35 18 121 110 122 135 142 167 175 169 189 43 46 58 59 40 30 33 25 24 15 15 10 7 6 3 354 345 346 343
49 36 342 11 356 7 7 25 326 11 2 81 117 62 100 155 110 135 139 145 160 70 62 92 51 78 62 51 37 24 28 25 17 21 16 18 17 13 4 2 360 357 357 351
18 1 110 305 219 338 33 69 101 316 295 190 16 61 267 115 134 131 141 118 102 137 128 74 75 69 54 52 44 30 26 20 8 17 20 18 15 7 3 10 8 5 1 354
357 1 115 324 36 54 347 22 274 221 274 78 105 106 323 186 133 119 112 105 130 135 91 108 82 59 68 53 46 29 17 9 18 28 21 10 359 10 4 8 1 359 8 23
325 22 6 353 124 49 80 355 14 351 14 82 72 36 133 134 121 99 112 126 133 111 89 82 67 52 52 47 33 31 14 24 32 18 16 16 19 14 9 8 8 15 17 26
25 66 314 21 50 29 17 23 10 37 61 118 106 74 201 135 132 143 117 113 87 83 87 75 67 68 45 32 31 22 22 34 31 28 20 18 16 14 22 18 24 30 29 31
322 93 332 76 47 22 70 57 64 79 317 108 116 69 119 103 113 109 115 124 105 90 84 66 70 52 44 50 26 24 20 24 18 23 22 23 21 24 17 22 24 27 28 25
318 11 10 346 13 355 63 53 56 48 43 7 108 137 79 107 116 131 144 111 88 86 68 60 74 58 45 38 27 24 30 19 28 27 15 21 23 24 20 29 33 30 29 25
51 11 194 151 86 321 85 84 67 93 63 70 97 120 116 121 130 117 88 107 98 90 78 79 64 53 52 42 32 22 19 24 20 16 18 21 22 17 21 27 34 42 43 47
78 30 4 60 37 60 92 57 51 52 60 88 110 79 85 105 103 90 84 101 97 84 73 99 75 74 41 34 32 24 28 24 25 17 13 11 10 15 29 32 38 40 39 51
42 336 21 62 15 69 31 43 45 60 57 72 77 83 118 119 100 85 80 85 87 72 70 79 58 76 38 34 24 21 33 15 15 16 12 10 12 22 21 22 28 35 45 46
78 57 65 315 304 108 50 28 42 72 59 76 58 348 45 79 75 69 72 78 89 76 77 101 75 69 35 53 31 21 13 5 14 14 12 22 30 23 21 20 30 38 49 47
43 70 97 227 27 42 45 41 77 72 43 42 35 33 98 99 84 73 72 80 75 72 70 73 61 61 53 39 25 13 17 19 18 18 18 25 38 39 44 45 43 39 34 26
110 85 353 85 69 10 11 6 27 101 36 22 36 37 91 112 96 68 85 86 105 78 87 80 82 53 50 42 17 19 10 20 20 15 12 17 14 17 17 9 4 8 11 26
48 16 85 308 127 120 325 351 321 116 51 14 62 43 56 33 70 152 87 105 98 81 79 101 84 63 52 13 13 12 24 24 16 8 6 360 9 17 21 27 27 25 33 41
22 46 324 320 87 79 334 3 2 62 292 43 66 58 77 82 137 145 103 92 102 92 104 110 114 65 359 22 13 21 41 30 20 20 9 13 14 8 8 11 51 47 47 66
70 69 311 31 66 22 346 26 71 201 50 66 58 67 115 119 114 105 126 117 106 74 107 89 41 32 47 14 11 36 26 37 31 3 17 37 8 15 35 49 46 48 61 56
3 78 80 82 156 157 99 105 76 81 79 71 78 47 114 110 106 116 110 105 93 105 92 77 7 7 1 21 38 55 32 20 13 359 353 355 9 13 53 32 36 48 52 56
53 44 47 77 17 73 95 92 95 91 100 80 67 93 102 100 106 103 99 113 121 80 168 58 336 19 52 51 68 67 44 16 359 0 339 344 335 346 8 35 38 56 58 54
36 47 68 71 44 88 68 86 115 117 89 99 86 95 103 102 99 133 133 127 138 218 137 50 93 40 85 72 59 40 19 15 12 358 335 323 335 329 274 310 63 56 66 56
29 50 44 121 79 111 71 110 93 93 87 74 117 105 110 123 126 121 114 111 134 120 72 56 356 325 110 112 52 36 21 1 340 346 334 326 326 317 305 236 199 143 94 73
Height
770 794 809 792 772 773 792 816 826 815 799 813 835 849 844 855 866 862 873 874 878 874 872 871 870 870 870 871 872 871 868 867 865 863 862 861 860 858 857 855 854 851 849 847
784 802 772 765 766 772 786 798 805 800 792 825 854 872 865 864 859 869 867 872 877 875 874 873 872 871 872 872 873 872 870 869 868 866 864 862 860 858 856 854 852 850 848 847
785 778 762 766 778 786 793 802 801 801 786 821 832 867 874 865 864 868 866 873 874 874 877 877 875 874 873 873 873 873 873 871 869 868 865 863 860 857 855 852 849 848 846 844
775 765 768 777 786 786 810 783 786 791 803 828 805 880 875 871 877 873 871 877 879 881 880 877 877 873 874 876 875 874 872 871 870 868 865 863 860 858 856 853 850 848 846 844
790 784 784 788 788 775 799 782 790 787 799 805 828 858 880 873 876 877 879 882 882 881 880 879 878 875 876 876 876 875 873 871 868 867 865 862 861 859 856 853 850 847 845 844
784 769 781 791 777 778 779 793 797 797 810 844 845 856 888 880 875 880 882 882 880 880 879 879 877 877 878 876 877 876 873 872 870 867 865 862 860 858 856 853 850 847 844 842
787 795 784 778 794 784 797 819 854 859 859 869 850 868 886 872 869 876 881 881 879 880 879 879 880 880 880 879 879 878 875 874 871 866 866 863 861 859 856 852 849 846 843 840
823 831 800 784 798 806 813 824 856 869 868 859 851 879 892 869 868 867 873 875 878 878 877 879 882 882 881 881 881 880 878 875 873 868 867 864 862 859 855 852 849 846 843 840
826 823 788 788 787 796 813 835 812 834 830 860 883 882 872 868 872 874 880 879 881 879 884 884 883 882 883 883 882 881 879 876 873 870 867 865 861 858 855 852 848 846 843 840
810 830 797 790 786 794 809 806 844 846 865 877 891 896 886 876 880 883 885 884 882 884 886 885 884 885 885 885 883 881 879 877 874 871 868 865 862 859 855 852 848 846 844 841
806 823 825 803 818 824 827 835 833 836 851 885 890 902 873 869 876 884 884 883 883 884 887 886 886 886 886 884 883 882 880 878 875 873 870 866 862 859 856 853 850 847 845 843
815 823 842 831 811 805 815 831 836 866 864 874 885 893 861 865 871 876 879 879 883 885 886 886 888 887 887 885 884 883 881 879 876 874 871 867 864 860 857 854 852 850 848 846
818 837 859 841 835 816 825 827 832 841 853 867 885 893 862 865 874 874 876 880 886 888 888 889 889 889 888 887 886 884 882 881 878 875 872 869 865 862 859 856 853 851 849 847
814 831 841 861 841 828 839 833 833 847 875 869 880 878 869 875 878 877 880 884 888 889 889 891 891 891 889 888 888 886 884 882 879 876 872 869 867 864 861 858 855 853 851 849
825 847 837 828 824 824 831 836 839 851 855 876 877 879 878 878 879 878 878 882 886 890 890 891 891 891 891 889 889 887 885 883 881 877 874 871 868 866 863 860 858 855 852 850
822 848 839 840 830 839 848 842 843 847 854 865 870 877 867 872 873 878 881 883 888 889 890 892 892 892 892 891 890 889 887 884 881 879 876 873 870 867 864 862 860 858 855 853
830 840 850 863 839 846 875 859 855 859 861 869 886 875 865 874 878 884 887 887 890 892 893 893 893 894 893 892 891 890 888 885 882 880 877 874 871 868 867 864 862 859 857 856
834 842 849 869 855 895 869 851 857 868 870 869 871 868 874 882 886 887 888 891 893 894 894 894 894 894 894 893 892 890 888 886 884 881 879 876 874 871 869 867 864 862 860 858
829 845 863 875 881 881 870 862 861 867 886 873 872 873 876 882 886 894 891 892 894 894 895 895 895 895 895 894 893 891 889 887 885 882 880 878 876 874 872 870 866 864 862 860
833 844 852 860 878 896 885 865 853 858 895 874 874 878 880 879 897 900 893 894 895 895 895 896 896 896 895 894 893 891 889 888 886 884 882 880 878 876 874 871 867 865 863 862
869 878 878 864 879 885 874 865 854 895 902 877 878 880 884 890 893 894 893 895 895 896 896 896 896 896 895 894 893 891 890 889 887 886 884 881 879 877 875 873 871 868 866 865
874 877 875 872 890 901 870 868 884 884 879 880 881 882 887 888 890 892 892 893 895 896 896 896 896 896 895 894 893 892 891 889 888 886 885 884 880 879 877 875 873 870 868 867
882 868 881 883 890 877 872 876 875 877 881 881 882 882 886 889 891 892 893 895 896 896 896 896 896 896 895 894 893 892 892 890 889 887 886 885 883 880 878 876 873 872 870 869
867 865 879 881 879 877 875 875 875 877 879 880 881 883 886 889 891 892 894 895 896 896 896 896 895 895 895 894 894 893 893 891 889 888 886 884 882 882 880 878 876 873 871 870
872 871 879 883 879 877 876 875 875 876 878 881 883 885 887 889 891 892 894 895 896 896 896 896 895 895 895 894 894 893 893 892 890 889 886 884 883 881 879 878 877 876 874 872
878 883 890 892 881 882 878 874 874 878 881 882 884 887 888 889 891 891 893 894 895 895 896 896 896 894 894 894 894 893 893 892 889 888 886 884 882 879 877 876 876 876 875 873